BEIDOU-3 IGSO-2

Last updated on Tue Nov 19 2024 00:02:43 GMT+0000 (Coordinated Universal Time)

1 44337U 19035A 24322.83050358 -.00000064 00000+0 00000+0 0 9993 2 44337 55.1861 163.9216 0034767 201.0257 107.1426 1.00249229 19887
UTC large
Height (km)
Speed (km/s)
/
Latitude / Longitude
Inclination (degrees)
Orbital Period (minutes)
Azimuth
Elevation
Range (km)
Doppler Factor

Next 0 passes for location: London (51.5072 / 0.1276)

Sorry there are no passes over London.